TimeEST,TemperatureF,Dew PointF,Humidity,Sea Level PressureIn,VisibilityMPH,Wind Direction,Wind SpeedMPH,Gust SpeedMPH,PrecipitationIn,Events,Conditions,WindDirDegrees,DateUTC
12:03 AM,19.4,14.0,80,30.14,9.0,West,12.7,21.9,N/A,Snow,Light Snow,270,2013-01-24 05:03:00
12:10 AM,19.4,14.0,80,30.14,5.0,WSW,9.2,21.9,N/A,Snow,Light Snow,250,2013-01-24 05:10:00
12:55 AM,19.2,13.3,78,30.15,8.0,West,11.5,-,0.00,Snow,Light Snow,270,2013-01-24 05:55:00
1:19 AM,19.4,12.2,74,30.16,10.0,WNW,10.4,-,N/A,,Mostly Cloudy,290,2013-01-24 06:19:00
1:40 AM,19.4,10.4,68,30.17,10.0,WNW,13.8,23.0,N/A,,Mostly Cloudy,290,2013-01-24 06:40:00
1:55 AM,19.4,9.1,64,30.18,9.0,WNW,12.7,25.3,0.00,,Mostly Cloudy,290,2013-01-24 06:55:00
2:17 AM,17.6,8.6,68,30.20,9.0,WNW,18.4,24.2,N/A,Snow,Light Snow,290,2013-01-24 07:17:00
2:23 AM,17.6,8.6,68,30.21,9.0,WNW,13.8,24.2,N/A,,Scattered Clouds,300,2013-01-24 07:23:00
2:30 AM,17.6,8.6,68,30.22,10.0,WNW,15.0,-,N/A,,Mostly Cloudy,300,2013-01-24 07:30:00
2:55 AM,18.3,9.5,68,30.24,10.0,NW,13.8,21.9,0.00,Snow,Light Snow,310,2013-01-24 07:55:00
3:22 AM,17.6,8.6,68,30.27,10.0,NW,12.7,24.2,N/A,,Mostly Cloudy,310,2013-01-24 08:22:00
3:55 AM,16.3,6.8,66,30.30,10.0,NW,13.8,-,0.00,,Partly Cloudy,310,2013-01-24 08:55:00
4:55 AM,14.2,4.5,65,30.34,10.0,NW,8.1,-,N/A,,Scattered Clouds,310,2013-01-24 09:55:00
5:55 AM,12.7,3.4,66,30.39,10.0,NW,8.1,-,N/A,,Partly Cloudy,320,2013-01-24 10:55:00
6:55 AM,11.5,3.2,69,30.44,10.0,NW,8.1,-,N/A,,Scattered Clouds,310,2013-01-24 11:55:00
7:55 AM,11.1,3.6,72,30.48,10.0,NW,5.8,-,N/A,,Scattered Clouds,310,2013-01-24 12:55:00
8:55 AM,11.3,4.1,73,30.53,10.0,NW,6.9,-,N/A,,Mostly Cloudy,320,2013-01-24 13:55:00
9:55 AM,12.6,4.8,71,30.56,10.0,NNW,8.1,-,N/A,,Mostly Cloudy,340,2013-01-24 14:55:00
10:55 AM,14.2,5.0,67,30.61,10.0,NNW,6.9,-,N/A,,Mostly Cloudy,340,2013-01-24 15:55:00
11:55 AM,17.2,4.6,58,30.61,10.0,North,9.2,-,N/A,,Mostly Cloudy,360,2013-01-24 16:55:00
12:55 PM,19.0,7.3,60,30.60,10.0,NNW,5.8,-,N/A,,Mostly Cloudy,340,2013-01-24 17:55:00
1:55 PM,20.7,8.1,58,30.58,10.0,North,8.1,-,N/A,,Mostly Cloudy,10,2013-01-24 18:55:00
2:55 PM,21.0,5.5,51,30.57,10.0,NNE,4.6,-,N/A,,Mostly Cloudy,30,2013-01-24 19:55:00
3:55 PM,21.4,5.0,49,30.56,10.0,ENE,6.9,-,N/A,,Overcast,70,2013-01-24 20:55:00
4:55 PM,21.0,5.0,50,30.57,10.0,Calm,Calm,-,N/A,,Overcast,0,2013-01-24 21:55:00
5:55 PM,19.0,3.7,51,30.57,10.0,ENE,4.6,-,N/A,,Overcast,60,2013-01-24 22:55:00
6:55 PM,17.1,4.1,57,30.59,10.0,East,5.8,-,N/A,,Overcast,80,2013-01-24 23:55:00
7:55 PM,16.0,5.4,63,30.57,10.0,East,5.8,-,N/A,,Overcast,90,2013-01-25 00:55:00
8:55 PM,16.7,4.8,60,30.56,10.0,Calm,Calm,-,N/A,,Overcast,0,2013-01-25 01:55:00
9:55 PM,17.1,6.3,63,30.54,10.0,East,8.1,-,N/A,,Overcast,80,2013-01-25 02:55:00
10:55 PM,17.8,7.0,63,30.51,10.0,East,4.6,-,N/A,,Overcast,80,2013-01-25 03:55:00
11:55 PM,18.3,6.8,61,30.50,10.0,ESE,8.1,-,N/A,,Overcast,120,2013-01-25 04:55:00